星链-5047 (STARLINK-5047 )

导读 | 豆包AI

STARLINK-5047是美国SpaceX公司星链(Starlink)卫星互联网星座中的一员,于2023年1月31日发射升空。作为低轨卫星,它属于星链一代组网卫星,单颗重约386kg,配备太阳能电池阵,运行在近地轨道,为全球尤其是基础设施匮乏地区提供高速低延迟宽带互联网服务,助力实现全球无缝网络覆盖。

Basic Information
目录编号:
55409
目录名称:
STARLINK-5047
国际标识:
2023-014U
轨道中心:
EARTH
卫星名称:
星链-5047
卫星全名:
星链-5047 (STARLINK-5047 )
卫星状态:
已陨落 最后检测时间 2025-04-12
发射日期:
2023-01-31 UTC
国别 :
美国 (US)
星等 :
--
Orbit Information
数据来源 国际轨道数据
星历时间: 2025-04-11T20:32:56+0800
轨道信息已过期338天
半长轴: 6532.402km
偏心率: 0.0010964
轨道倾角: 69.990°
近地点辐角 259.191°
升交点赤经 167.803°
平近点角 231.246°
近地点: 147.104km
远地点: 161.43km
周期: 87.573分钟
每日圈数: 16.44347
Detailed Information
固有亮度:
5
最大亮度:
2.5
卫星平台:
Starlink v1.5
覆盖范围:
全球
运营商:
太空探索技术公司
运营商所在国:
美国
制造商(研发单位):
太空探索技术公司
制造商所在国:
美国
使用方式:
暂无
Satellite Introduction
星链(Starlink)计划是由太空探索技术公司(SpaceX)提出的一个巨型低轨卫星互联网星座项目,计划在2019年至2024年间在太空搭建由约1.2万颗卫星组成的“星链”网络,其中1584颗将部署在地球上空550千米处的近地轨道,并从2020年开始工作。该卫星仍在工作。